This is the latest recevied weather packets stored in our database for station/object KC5CAM-13. If no packets are shown the sender has not sent any weather packets the latest 10 day(s).
| Time | Temp. | Humidity | Pressure | Rain* | Wind** | Luminosity | Snow |
|---|---|---|---|---|---|---|---|
| 1777845238 | 27.22° C | 33% | 1016.7 hPa | 0 mm | - | 414 W/m² | - |
| 1777844935 | 27.22° C | 33% | 1017.1 hPa | 0 mm | - | 412 W/m² | - |
| 1777844633 | 27.22° C | 34% | 1016.9 hPa | 0 mm | - | 408 W/m² | - |
| 1777844330 | 27.78° C | 36% | 1017 hPa | 0 mm | - | 436 W/m² | - |
| 1777844028 | 27.22° C | 34% | 1017.2 hPa | 0 mm | - | 482 W/m² | - |
| 1777843724 | 27.22° C | 36% | 1017 hPa | 0 mm | - | 473 W/m² | - |
| 1777843422 | 27.78° C | 36% | 1017.3 hPa | 0 mm | - | 471 W/m² | - |
| 1777843119 | 27.78° C | 36% | 1017.3 hPa | 0 mm | - | 495 W/m² | - |
| 1777842816 | 27.78° C | 35% | 1017.4 hPa | 0 mm | - | 522 W/m² | - |
| 1777842511 | 27.78° C | 37% | 1017.3 hPa | 0 mm | - | 561 W/m² | - |
| 1777842209 | 27.78° C | 34% | 1017.8 hPa | 0 mm | - | 572 W/m² | - |
| 1777841903 | 27.22° C | 34% | 1017.6 hPa | 0 mm | - | 582 W/m² | - |
| 1777841600 | 27.78° C | 35% | 1017.8 hPa | 0 mm | - | 590 W/m² | - |
| 1777841297 | 27.22° C | 35% | 1017.9 hPa | 0 mm | - | 605 W/m² | - |
| 1777840994 | 27.22° C | 34% | 1018.1 hPa | 0 mm | - | 605 W/m² | - |
| 1777840692 | 27.78° C | 36% | 1018 hPa | 0 mm | - | 592 W/m² | - |
| 1777840389 | 27.78° C | 35% | 1018.1 hPa | 0 mm | - | 602 W/m² | - |
| 1777840086 | 28.33° C | 34% | 1018.4 hPa | 0 mm | - | 606 W/m² | - |
| 1777839784 | 27.22° C | 37% | 1018.3 hPa | 0 mm | - | 603 W/m² | - |
| 1777839481 | 27.22° C | 35% | 1018.6 hPa | 0 mm | - | 610 W/m² | - |
| 1777839178 | 27.22° C | 37% | 1018.8 hPa | 0 mm | - | 607 W/m² | - |
| 1777838876 | 27.22° C | 38% | 1018.8 hPa | 0 mm | - | 677 W/m² | - |
| 1777838571 | 27.22° C | 37% | 1018.7 hPa | 0 mm | - | 115 W/m² | - |
| 1777838269 | 27.78° C | 37% | 1018.8 hPa | 0 mm | - | 699 W/m² | - |
| 1777837965 | 27.22° C | 36% | 1018.7 hPa | 0 mm | - | 608 W/m² | - |
* Rain latest hour (hover to see other rain measurements)
** Current wind speed in m/s (hover to see current wind gust speed)